This is the latest recevied weather packets stored in our database for station/object DL9SEC-13. If no packets are shown the sender has not sent any weather packets the latest 10 day(s).
| Time | Temp. | Humidity | Pressure | Rain* | Wind** | Luminosity | Snow |
|---|---|---|---|---|---|---|---|
| 1777620303 | 13.33° C | 32% | 1029.4 hPa | 0 mm | - | - | - |
| 1777619402 | 12.78° C | 32% | 1029.4 hPa | 0 mm | - | - | - |
| 1777618503 | 12.78° C | 33% | 1029.5 hPa | 0 mm | - | - | - |
| 1777617603 | 12.22° C | 33% | 1029.3 hPa | 0 mm | - | - | - |
| 1777616703 | 11.67° C | 33% | 1028.9 hPa | 0 mm | - | - | - |
| 1777615803 | 11.11° C | 34% | 1028.9 hPa | 0 mm | - | - | - |
| 1777614903 | 11.11° C | 34% | 1028.8 hPa | 0 mm | - | - | - |
| 1777614003 | 10.56° C | 34% | 1028.9 hPa | 0 mm | - | - | - |
| 1777613103 | 10° C | 35% | 1028.6 hPa | 0 mm | - | - | - |
| 1777612203 | 9.44° C | 36% | 1028.5 hPa | 0 mm | - | - | - |
| 1777611303 | 8.89° C | 36% | 1028.4 hPa | 0 mm | - | - | - |
| 1777610403 | 8.89° C | 37% | 1028.3 hPa | 0 mm | - | - | - |
| 1777609503 | 8.89° C | 37% | 1028.1 hPa | 0 mm | - | - | - |
| 1777608603 | 8.89° C | 36% | 1028.1 hPa | 0 mm | - | - | - |
| 1777607703 | 8.89° C | 36% | 1028.3 hPa | 0 mm | - | - | - |
| 1777606803 | 8.89° C | 37% | 1028.3 hPa | 0 mm | - | - | - |
| 1777605903 | 8.89° C | 38% | 1028.4 hPa | 0 mm | - | - | - |
| 1777605003 | 8.89° C | 38% | 1028.4 hPa | 0 mm | - | - | - |
| 1777604103 | 8.89° C | 38% | 1028.4 hPa | 0 mm | - | - | - |
| 1777603203 | 8.89° C | 38% | 1028.4 hPa | 0 mm | - | - | - |
| 1777602303 | 8.89° C | 38% | 1028.4 hPa | 0 mm | - | - | - |
| 1777601403 | 9.44° C | 38% | 1028.4 hPa | 0 mm | - | - | - |
| 1777600503 | 9.44° C | 38% | 1028.3 hPa | 0 mm | - | - | - |
| 1777599603 | 9.44° C | 37% | 1028.3 hPa | 0 mm | - | - | - |
| 1777598703 | 9.44° C | 38% | 1028.4 hPa | 0 mm | - | - | - |
* Rain latest hour (hover to see other rain measurements)
** Current wind speed in m/s (hover to see current wind gust speed)